Regional Weather Roundup
Issued by NWS Kansas City/Pleasant Hill, MO

Home | Current Version | Previous Version | Text Only | Print | Product List | Glossary On
Versions: 1 2 3 4 5 6 7 8 9 10 11 12 13 14 15 16 17 18 19 20 21 22 23 24 25 26 27 28 29 30 31 32 33 34 35 36 37 38 39 40 41 42 43 44 45 46 47 48 49 50
000
ASUS43 KEAX 201204
RWREAX

WEATHER ROUNDUP FOR EASTERN KANSAS AND NORTHWEST MISSOURI
NATIONAL WEATHER SERVICE KANSAS CITY/PLEASANT HILL MO
700 AM CDT WED AUG 20 2014

KSZ040-057-103>105-MOZ028-029-037-043-201300-
...KANSAS CITY METROPOLITAN AREA...

CITY           SKY/WX    TMP DP  RH WIND       PRES   REMARKS
K.C. INTL      MOCLDY    73  69  87 S6        29.86R
6HR MIN TEMP:  73; 6HR MAX TEMP:  77;

K.C. DOWNTOWN  PTCLDY    80  68  66 SW7       29.85R
6HR MIN TEMP:  80; 6HR MAX TEMP:  84;

LEES SUMMIT    PTCLDY    76  70  82 S6        29.88R
6HR MIN TEMP:  74; 6HR MAX TEMP:  80;

OLATHE - IXD   PTCLDY    75  69  81 S9        29.88R
6HR MIN TEMP:  75; 6HR MAX TEMP:  79;

OLATHE - OJC   PTCLDY    72  69  90 S6        29.87R
6HR MIN TEMP:  72; 6HR MAX TEMP:  79;

LAWRENCE       PTCLDY    74  68  81 SE6       29.85R

$$

MOZ001>008-011>017-020>025-030>033-038>040-044>046-053-054-201300-
...NORTHERN AND CENTRAL MISSOURI...

CITY           SKY/WX    TMP DP  RH WIND       PRES   REMARKS
ST. JOSEPH     CLOUDY    74  70  87 S7        29.83R
6HR MIN TEMP:  72; 6HR MAX TEMP:  76;

MOSBY          PTSUNNY   73  70  88 CALM      29.84S
WHITEMAN AFB   MOCLDY    71  64  76 S7        29.87R
6HR MIN TEMP:  71; 6HR MAX TEMP:  78;

CLINTON        CLEAR     75  72  88 S6        29.89R
SEDALIA        MOCLDY    75  70  84 SW8       29.89R
6HR MIN TEMP:  74; 6HR MAX TEMP:  77;

WARSAW         NOT AVBL
MARSHALL       CLOUDY    75  73  94 SW5       29.87S
CHILLICOTHE      N/A     74  71  91 S3        29.85R
6HR MIN TEMP:  72; 6HR MAX TEMP:  75;

MOBERLY        CLOUDY    75  70  83 SW6       29.87R
KIRKSVILLE     CLOUDY    72  70  93 S6        29.86R
6HR MIN TEMP:  69; 6HR MAX TEMP:  73;


$$

MOZ041-047>049-056>058-063>065-088>090-097-201300-
...EASTERN AND SOUTHERN MISSOURI...

CITY           SKY/WX    TMP DP  RH WIND       PRES   REMARKS
ST. LOUIS INTL MOCLDY    77  70  79 CALM      29.90R
6HR MIN TEMP:  75; 6HR MAX TEMP:  77;

SPIRIT OF STL  PTCLDY    70  69  97 CALM      29.88R
COLUMBIA       MOCLDY    71  69  93 S6        29.89R
JEFFERSON CITY PTCLDY    71  69  93 CALM      29.88R
MEXICO         CLOUDY   N/A N/A N/A S5        29.87S
ROLLA          CLEAR     73  67  81 SW6       29.91R
LEBANON        CLEAR     75  68  78 SW9       29.95R
OSAGE BEACH    PTCLDY    72  68  88 SW3       29.91R
SPRINGFIELD    CLEAR     72  68  87 S6        29.94R
BRANSON        PTCLDY    73  68  83 S5        29.97R
NEVADA         CLEAR     73  70  88 S7        29.91R
JOPLIN         CLEAR     74  70  87 S8        29.92R
WEST PLAINS    CLEAR     71  69  93 W3        29.96R

$$

IAZ060-094-KSZ022-034>040-054-083-096-NEZ052-066-093-201300-
...KANSAS...SOUTHEAST NEBRASKA AND IOWA...

CITY           SKY/WX    TMP DP  RH WIND       PRES   REMARKS
TOPEKA         PTCLDY    74  69  85 CALM      29.84R
6HR MIN TEMP:  73; 6HR MAX TEMP:  81;

MANHATTAN      PTCLDY    74  68  81 SW6       29.81S
EMPORIA        PTCLDY    70  68  93 S8        29.85R
CHANUTE        CLEAR     73  69  87 S8        29.88R
WICHITA        PTCLDY    73  67  81 S10       29.85R
OMAHA          CLOUDY    75  68  78 SE7       29.79R
LINCOLN        MOCLDY    77  66  68 S12       29.78R
FALLS CITY     MOCLDY    70  68  93 SE3       29.81R
LAMONI           N/A     71  66  84 SE7       29.85F
DES MOINES     TSTM      71  67  87 SE15G21   29.83R FOG

$$




USA.gov is the U.S. government's official web portal to all federal, state and local government web resources and services.